Weather History for Park Rapids, MN

Change the Weather History Date:

Sunday, October 23, 2011

  Actual Average Record
Temperature  
Mean Temperature 46 °F -  
Max Temperature 55 °F 53 °F 79 °F (1963)
Min Temperature 34 °F 29 °F 9 °F (1981)
Degree Days  
Heating Degree Days 19    
Moisture  
Dew Point 38 °F    
Average Humidity 85    
Maximum Humidity 100    
Minimum Humidity 45    
Precipitation  
Precipitation 0.09 in - - ()
Sea Level Pressure  
Sea Level Pressure 29.83 in    
Wind  
Wind Speed 5 mph (WSW)    
Max Wind Speed 14 mph    
Max Gust Speed -    
Visibility 8 miles    
Events Rain    
Averages and records for this station are not official NWS values.
T = Trace of Precipitation, MM = Missing Value Source: NWS Daily Summary

Daily Weather History Graph

Daily Weather History Graph

Search for Another Location

Airport:

Trip Planner

Search our weather history database for the weather conditions in past years. The results will help you decide how hot, cold, wet, or windy it might be!

Date:

Astronomy

Oct. 23, 2011 Rise Set
Actual Time 7:49 AM CDT 6:19 PM CDT
Civil Twilight 7:18 AM CDT 6:50 PM CDT
Nautical Twilight 6:42 AM CDT 7:25 PM CDT
Astronomical Twilight 6:07 AM CDT 8:00 PM CDT
Moon 3:44 AM CDT (10/23) 4:20 PM CDT (10/23)
Length of Visible Light 11h 32m
Length of Day
10h 29m
Waning Crescent, 14% of the Moon is Illuminated
Oct 23
Waning Crescent
Oct 26
New
Nov 2
First Quarter
Nov 10
Full
Nov 18
Last Quarter

Hourly Weather History & Observations

Time (CDT) Temp. Windchill Dew Point Humidity Pressure Visibility Wind Dir Wind Speed Gust Speed Precip Events Conditions
12:53 AM 44.1 °F - 41.0 °F 89% 29.83 in 9.0 mi Calm Calm - 0.00 in   Partly Cloudy
1:53 AM 41.0 °F 37.1 °F 39.0 °F 93% 29.82 in 7.0 mi South 5.8 mph - N/A   Clear
2:53 AM 42.1 °F 38.4 °F 41.0 °F 96% 29.81 in 8.0 mi South 5.8 mph - N/A   Clear
3:53 AM 42.1 °F 39.2 °F 39.9 °F 92% 29.80 in 8.0 mi SSW 4.6 mph - N/A   Clear
4:53 AM 39.9 °F 36.7 °F 39.0 °F 97% 29.79 in 6.0 mi South 4.6 mph - N/A   Clear
5:48 AM 39.2 °F - 39.2 °F 100% 29.76 in 2.5 mi Calm Calm - N/A   Clear
5:53 AM 37.0 °F - 37.0 °F 100% 29.80 in 2.5 mi Calm Calm - N/A   Clear
5:57 AM 37.4 °F - 37.4 °F 100% 29.76 in 0.8 mi Calm Calm - N/A   Clear
6:34 AM 39.2 °F 35.9 °F 37.4 °F 93% 29.76 in 2.0 mi South 4.6 mph - N/A   Clear
6:43 AM 39.2 °F 35.9 °F 39.2 °F 100% 29.75 in 4.0 mi South 4.6 mph - N/A   Clear
6:53 AM 39.0 °F - 39.0 °F 100% 29.78 in 5.0 mi Calm Calm - N/A   Clear
7:53 AM 42.1 °F 36.6 °F 41.0 °F 96% 29.80 in 9.0 mi NNW 9.2 mph - N/A   Overcast
8:53 AM 44.1 °F 40.8 °F 41.0 °F 89% 29.80 in 10.0 mi WNW 5.8 mph - N/A   Overcast
9:53 AM 45.0 °F 40.6 °F 41.0 °F 86% 29.80 in 10.0 mi West 8.1 mph - 0.00 in Rain Light Rain
10:53 AM 44.1 °F 39.5 °F 42.1 °F 93% 29.82 in 6.0 mi NNW 8.1 mph - 0.03 in Rain Light Rain
11:53 AM 45.0 °F 40.6 °F 42.1 °F 90% 29.83 in 8.0 mi WNW 8.1 mph - 0.04 in Rain Light Rain
12:53 PM 46.0 °F 41.9 °F 43.0 °F 89% 29.83 in 10.0 mi NW 8.1 mph - 0.02 in   Overcast
1:53 PM 48.0 °F - 42.1 °F 80% 29.82 in 10.0 mi Calm Calm - N/A   Mostly Cloudy
2:53 PM 53.1 °F - 42.1 °F 66% 29.83 in 10.0 mi WNW 11.5 mph - N/A   Partly Cloudy
3:53 PM 54.0 °F - 35.1 °F 49% 29.83 in 10.0 mi NW 13.8 mph - N/A   Clear
4:53 PM 55.0 °F - 34.0 °F 45% 29.84 in 10.0 mi West 12.7 mph - N/A   Mostly Cloudy
5:53 PM 51.1 °F - 35.1 °F 54% 29.86 in 10.0 mi West 8.1 mph - N/A   Clear
6:53 PM 43.0 °F 38.2 °F 34.0 °F 71% 29.88 in 10.0 mi WSW 8.1 mph - N/A   Clear
7:53 PM 45.0 °F 41.2 °F 36.0 °F 71% 29.89 in 10.0 mi WSW 6.9 mph - N/A   Mostly Cloudy
8:53 PM 41.0 °F 36.4 °F 35.1 °F 79% 29.90 in 10.0 mi WSW 6.9 mph - N/A   Scattered Clouds
9:53 PM 37.9 °F 34.4 °F 33.1 °F 83% 29.91 in 10.0 mi WSW 4.6 mph - N/A   Clear
10:53 PM 37.0 °F 30.4 °F 32.0 °F 82% 29.91 in 10.0 mi West 9.2 mph - N/A   Clear
11:53 PM 34.0 °F 27.2 °F 30.0 °F 85% 29.93 in 10.0 mi West 8.1 mph - N/A   Clear